TimeMST,TemperatureF,Dew PointF,Humidity,Sea Level PressureIn,VisibilityMPH,Wind Direction,Wind SpeedMPH,Gust SpeedMPH,PrecipitationIn,Events,Conditions,WindDirDegrees,DateUTC
12:53 AM,44.1,25.0,47,29.44,10.0,SW,12.7,-,N/A,,Mostly Cloudy,230,2013-12-04 07:53:00
1:53 AM,44.1,25.0,47,29.44,10.0,SW,10.4,-,N/A,,Overcast,230,2013-12-04 08:53:00
2:53 AM,43.0,26.1,51,29.42,10.0,SSW,12.7,-,N/A,,Overcast,200,2013-12-04 09:53:00
3:53 AM,44.1,27.0,51,29.39,10.0,SSW,16.1,24.2,N/A,,Overcast,210,2013-12-04 10:53:00
4:53 AM,44.1,28.0,53,29.39,10.0,SW,18.4,-,N/A,,Overcast,220,2013-12-04 11:53:00
5:53 AM,44.1,28.9,55,29.37,10.0,SSW,20.7,33.4,0.00,,Overcast,210,2013-12-04 12:53:00
6:39 AM,39.0,34.0,82,29.50,6.0,SW,20.7,36.8,0.01,Rain,Rain,230,2013-12-04 13:39:00
6:53 AM,39.0,35.1,86,29.44,10.0,WSW,15.0,23.0,0.02,Rain,Light Rain,240,2013-12-04 13:53:00
7:24 AM,35.1,33.1,92,29.55,5.0,NW,20.7,29.9,0.01,Rain,Light Rain,320,2013-12-04 14:24:00
7:27 AM,30.9,28.9,92,29.55,2.0,NNW,20.7,29.9,0.01,Snow,Light Snow,340,2013-12-04 14:27:00
7:29 AM,30.0,28.0,92,29.55,1.2,North,19.6,29.9,0.01,Snow,Light Snow,350,2013-12-04 14:29:00
7:38 AM,28.0,26.1,92,29.56,0.5,NNW,18.4,26.5,0.02,Fog-Snow,Snow,340,2013-12-04 14:38:00
7:46 AM,27.0,26.1,96,29.58,0.5,NNW,13.8,26.5,0.02,Fog-Snow,Snow,330,2013-12-04 14:46:00
7:53 AM,27.0,26.1,96,29.55,0.8,North,9.2,19.6,0.02,Snow,Light Snow,360,2013-12-04 14:53:00
8:28 AM,27.0,26.1,96,29.61,0.5,East,9.2,-,0.03,Fog-Snow,Snow,90,2013-12-04 15:28:00
8:53 AM,28.0,27.0,96,29.57,0.5,ENE,6.9,-,0.05,Fog-Snow,Snow,60,2013-12-04 15:53:00
9:07 AM,28.0,27.0,96,29.64,0.2,ENE,4.6,-,0.01,Fog-Snow,Snow,70,2013-12-04 16:07:00
9:41 AM,28.0,26.1,92,29.66,0.8,NNE,5.8,-,0.03,Snow,Light Snow,20,2013-12-04 16:41:00
9:53 AM,28.0,27.0,96,29.63,0.8,ENE,3.5,-,0.04,Snow,Light Snow,60,2013-12-04 16:53:00
10:25 AM,28.9,27.0,92,29.67,1.0,East,4.6,-,0.01,Snow,Light Snow,90,2013-12-04 17:25:00
10:32 AM,28.9,27.0,92,29.67,2.0,SE,4.6,-,0.01,Snow,Light Snow,130,2013-12-04 17:32:00
10:53 AM,28.9,28.0,96,29.63,1.8,Calm,Calm,-,0.01,Snow,Light Snow,0,2013-12-04 17:53:00
10:57 AM,28.9,28.0,96,29.68,1.0,Calm,Calm,-,0.00,Snow,Light Snow,0,2013-12-04 17:57:00
11:03 AM,28.9,28.0,96,29.68,0.5,North,-9999.0,-,0.00,Fog-Snow,Snow,0,2013-12-04 18:03:00
11:32 AM,30.0,27.0,88,29.64,1.0,South,17.3,25.3,0.01,Snow,Light Snow,190,2013-12-04 18:32:00
11:36 AM,30.0,27.0,88,29.65,1.5,South,18.4,25.3,0.01,Snow,Light Snow,190,2013-12-04 18:36:00
11:41 AM,30.0,27.0,88,29.64,2.5,SSW,17.3,-,0.01,Snow,Light Snow,200,2013-12-04 18:41:00
11:53 AM,28.9,26.1,89,29.60,2.5,SSW,21.9,-,0.01,Snow,Light Snow,210,2013-12-04 18:53:00
12:02 PM,28.9,26.1,89,29.67,5.0,SSW,21.9,-,0.00,Snow,Light Snow,200,2013-12-04 19:02:00
12:20 PM,28.9,26.1,89,29.67,2.0,SSW,19.6,-,0.00,Snow,Light Snow,200,2013-12-04 19:20:00
12:34 PM,28.9,27.0,92,29.68,1.2,SSW,20.7,-,0.00,Snow,Light Snow,200,2013-12-04 19:34:00
12:53 PM,28.9,27.0,92,29.62,0.8,South,16.1,-,0.00,Snow,Light Snow,190,2013-12-04 19:53:00
12:59 PM,28.9,27.0,92,29.67,1.0,South,19.6,-,0.00,Snow,Light Snow,190,2013-12-04 19:59:00
1:02 PM,28.9,26.1,89,29.67,2.5,SSW,23.0,-,0.00,Snow,Light Snow,200,2013-12-04 20:02:00
1:09 PM,28.9,26.1,89,29.67,9.0,SSW,20.7,-,0.00,,Overcast,200,2013-12-04 20:09:00
1:51 PM,28.4,26.6,93,29.69,10.0,SSW,20.7,-,0.00,,Overcast,210,2013-12-04 20:51:00
1:53 PM,30.0,26.1,85,29.65,10.0,SSW,21.9,-,0.00,,Overcast,210,2013-12-04 20:53:00
2:03 PM,30.0,26.1,85,29.70,10.0,SSW,16.1,-,N/A,,Overcast,210,2013-12-04 21:03:00
2:39 PM,26.1,21.0,81,29.74,10.0,Calm,Calm,-,N/A,,Overcast,0,2013-12-04 21:39:00
2:53 PM,26.1,19.9,78,29.71,10.0,Variable,4.6,-,N/A,,Overcast,0,2013-12-04 21:53:00
3:12 PM,27.0,19.9,75,29.76,10.0,Calm,Calm,-,N/A,,Overcast,0,2013-12-04 22:12:00
3:33 PM,26.1,19.0,75,29.77,10.0,NNW,6.9,-,N/A,,Overcast,330,2013-12-04 22:33:00
3:53 PM,26.1,19.0,75,29.75,10.0,Calm,Calm,-,N/A,,Overcast,0,2013-12-04 22:53:00
4:19 PM,28.0,19.9,72,29.79,10.0,WNW,9.2,-,N/A,,Overcast,300,2013-12-04 23:19:00
4:39 PM,25.0,19.0,78,29.80,10.0,WNW,5.8,-,N/A,,Mostly Cloudy,300,2013-12-04 23:39:00
4:53 PM,24.1,19.0,81,29.78,10.0,WNW,9.2,-,N/A,,Scattered Clouds,300,2013-12-04 23:53:00
5:53 PM,19.9,12.9,74,29.84,10.0,North,16.1,23.0,N/A,,Mostly Cloudy,350,2013-12-05 00:53:00
6:53 PM,19.0,12.0,74,29.90,10.0,NNW,9.2,-,N/A,,Overcast,340,2013-12-05 01:53:00
7:53 PM,16.0,10.0,77,29.96,10.0,Variable,3.5,-,N/A,,Partly Cloudy,0,2013-12-05 02:53:00
8:53 PM,12.0,8.1,84,29.98,10.0,ENE,4.6,-,N/A,,Clear,60,2013-12-05 03:53:00
9:53 PM,7.0,3.9,87,30.02,10.0,ENE,3.5,-,N/A,,Partly Cloudy,60,2013-12-05 04:53:00
10:53 PM,5.0,1.9,87,30.03,10.0,ENE,6.9,-,N/A,,Clear,70,2013-12-05 05:53:00
11:53 PM,3.9,1.0,88,30.02,10.0,East,6.9,-,N/A,,Clear,80,2013-12-05 06:53:00